DLH12SS EDDH-LOWW

Flight info

Callsign DLH12SS
Flight time 1h 14m
Altitude 41000
Route AMLUH2G AMLUH M852 DENIX DCT ZUCKA DCT SODRO DCT ARMUT DCT LULAR DCT DEXIT DCT VENEN VENEN3W
Aircraft A359/H-SDE2E3GHIJ3J4J5LM1ORWXY/LB1D1

Departure

Time 2026-04-22 18:33
Airport Hamburg Helmut Schmidt Airport (EDDH)

Arrival

Time 2026-04-22 19:48
Airport Vienna International Airport (LOWW)
Time Latitude Longitude Altitude Speed Heading
2026-04-22 18:13 53.63014 10.00340 57 ft 0 kts 122°
2026-04-22 18:26 53.63015 10.00338 55 ft 2 kts 122°
2026-04-22 18:27 53.63028 10.00305 49 ft 4 kts 122°
2026-04-22 18:27 53.63041 10.00269 49 ft 3 kts 122°
2026-04-22 18:27 53.63052 10.00241 49 ft 4 kts 131°
2026-04-22 18:27 53.63066 10.00222 49 ft 4 kts 199°
2026-04-22 18:28 53.63068 10.00222 49 ft 3 kts 212°
2026-04-22 18:28 53.63065 10.00218 49 ft 0 kts 212°
2026-04-22 18:30 53.63057 10.00210 49 ft 3 kts 212°
2026-04-22 18:30 53.63022 10.00173 49 ft 9 kts 212°
2026-04-22 18:31 53.62958 10.00104 52 ft 13 kts 212°
2026-04-22 18:31 53.62870 10.00031 49 ft 15 kts 217°
2026-04-22 18:31 53.62850 9.99980 53 ft 0 kts 241°
2026-04-22 18:32 53.62849 9.99978 54 ft 1 kts 241°
2026-04-22 18:32 53.62833 9.99930 50 ft 10 kts 241°
2026-04-22 18:32 53.62816 9.99803 49 ft 10 kts 292°
2026-04-22 18:32 53.62858 9.99752 49 ft 0 kts 330°
2026-04-22 18:33 53.62860 9.99750 49 ft 4 kts 330°
2026-04-22 18:33 53.63125 9.99518 49 ft 84 kts 333°
2026-04-22 18:33 53.63865 9.98872 50 ft 153 kts 333°
2026-04-22 18:33 53.64889 9.98028 666 ft 170 kts 332°
2026-04-22 18:34 53.65954 9.97132 1512 ft 175 kts 332°
2026-04-22 18:34 53.67095 9.96143 1968 ft 192 kts 332°
2026-04-22 18:34 53.68316 9.95122 2659 ft 197 kts 336°
2026-04-22 18:34 53.69679 9.94660 3357 ft 204 kts 358°
2026-04-22 18:35 53.71077 9.95178 4079 ft 211 kts 25°
2026-04-22 18:35 53.72165 9.96838 4823 ft 215 kts 52°
2026-04-22 18:35 53.72930 9.98979 5599 ft 216 kts 57°
2026-04-22 18:35 53.73621 10.01249 6320 ft 220 kts 64°
2026-04-22 18:36 53.73872 10.03837 6990 ft 231 kts 91°
2026-04-22 18:36 53.73360 10.06536 7362 ft 255 kts 114°
2026-04-22 18:36 53.72455 10.09244 7667 ft 275 kts 118°
2026-04-22 18:36 53.71461 10.12068 8265 ft 282 kts 117°
2026-04-22 18:37 53.70464 10.14942 8983 ft 285 kts 117°
2026-04-22 18:37 53.69445 10.17829 9706 ft 289 kts 120°
2026-04-22 18:37 53.68056 10.20321 10205 ft 296 kts 143°
2026-04-22 18:37 53.66157 10.21731 10522 ft 306 kts 162°
2026-04-22 18:38 53.64039 10.22701 10787 ft 325 kts 164°
2026-04-22 18:38 53.61792 10.23686 11070 ft 342 kts 163°
2026-04-22 18:38 53.59440 10.24734 11353 ft 356 kts 163°
2026-04-22 18:39 53.54565 10.26938 12408 ft 366 kts 163°
2026-04-22 18:39 53.52098 10.28060 12984 ft 369 kts 163°
2026-04-22 18:39 53.49609 10.29198 13570 ft 372 kts 163°
2026-04-22 18:39 53.47101 10.30335 14162 ft 374 kts 162°
2026-04-22 18:40 53.44606 10.31462 14671 ft 377 kts 163°
2026-04-22 18:40 53.42058 10.32611 15193 ft 380 kts 163°
2026-04-22 18:40 53.39499 10.33763 15732 ft 382 kts 163°
2026-04-22 18:40 53.36919 10.34925 16242 ft 385 kts 163°
2026-04-22 18:41 53.34317 10.36096 16768 ft 388 kts 163°
2026-04-22 18:41 53.31704 10.37270 17273 ft 390 kts 163°
2026-04-22 18:41 53.29065 10.38455 17817 ft 393 kts 163°
2026-04-22 18:41 53.26451 10.39628 18338 ft 395 kts 163°
2026-04-22 18:42 53.23783 10.40824 18816 ft 398 kts 163°
2026-04-22 18:42 53.21110 10.42020 19279 ft 399 kts 163°
2026-04-22 18:42 53.18409 10.43226 19745 ft 401 kts 163°
2026-04-22 18:42 53.15718 10.44427 20222 ft 402 kts 163°
2026-04-22 18:43 53.13007 10.45636 20686 ft 404 kts 163°
2026-04-22 18:43 53.10270 10.46776 21145 ft 406 kts 166°
2026-04-22 18:43 53.07495 10.47691 21615 ft 408 kts 168°
2026-04-22 18:43 53.04689 10.48497 22057 ft 410 kts 168°
2026-04-22 18:44 53.01868 10.49280 22503 ft 411 kts 168°
2026-04-22 18:44 52.99075 10.50068 22926 ft 413 kts 168°
2026-04-22 18:44 52.96240 10.50896 23371 ft 414 kts 167°
2026-04-22 18:44 52.93399 10.51750 23789 ft 416 kts 167°
2026-04-22 18:45 52.90544 10.52624 24173 ft 418 kts 167°
2026-04-22 18:45 52.87677 10.53510 24554 ft 419 kts 167°
2026-04-22 18:45 52.84804 10.54401 24941 ft 420 kts 166°
2026-04-22 18:45 52.81923 10.55293 25317 ft 422 kts 166°
2026-04-22 18:46 52.79032 10.56186 25730 ft 423 kts 166°
2026-04-22 18:46 52.76125 10.57082 26136 ft 426 kts 166°
2026-04-22 18:46 52.73207 10.57979 26530 ft 428 kts 166°
2026-04-22 18:46 52.70269 10.58880 26997 ft 430 kts 166°
2026-04-22 18:47 52.67311 10.59785 27451 ft 432 kts 165°
2026-04-22 18:47 52.64347 10.60692 27911 ft 434 kts 165°
2026-04-22 18:47 52.61406 10.61590 28409 ft 436 kts 165°
2026-04-22 18:47 52.58410 10.62503 28905 ft 438 kts 165°
2026-04-22 18:48 52.55404 10.63419 29408 ft 441 kts 165°
2026-04-22 18:48 52.52376 10.64340 29915 ft 443 kts 165°
2026-04-22 18:48 52.49326 10.65268 30290 ft 448 kts 165°
2026-04-22 18:48 52.46241 10.66205 30706 ft 451 kts 165°
2026-04-22 18:49 52.43149 10.67141 31142 ft 453 kts 164°
2026-04-22 18:49 52.40038 10.68080 31557 ft 455 kts 164°
2026-04-22 18:49 52.36917 10.69021 31954 ft 457 kts 164°
2026-04-22 18:49 52.33775 10.69968 32326 ft 459 kts 164°
2026-04-22 18:50 52.30620 10.70918 32686 ft 462 kts 163°
2026-04-22 18:50 52.27460 10.71868 33068 ft 464 kts 164°
2026-04-22 18:50 52.24301 10.72819 33255 ft 469 kts 164°
2026-04-22 18:50 52.21077 10.73787 33537 ft 472 kts 164°
2026-04-22 18:51 52.17832 10.74757 33909 ft 473 kts 164°
2026-04-22 18:51 52.14598 10.75719 34397 ft 471 kts 163°
2026-04-22 18:51 52.11373 10.76677 34740 ft 472 kts 164°
2026-04-22 18:51 52.08126 10.77643 34994 ft 475 kts 164°
2026-04-22 18:52 52.04862 10.78615 35251 ft 477 kts 164°
2026-04-22 18:52 52.01591 10.79588 35342 ft 478 kts 165°
2026-04-22 18:52 51.95018 10.81535 35344 ft 482 kts 164°
2026-04-22 18:53 51.88411 10.83484 35343 ft 481 kts 164°
2026-04-22 18:53 51.81820 10.85423 35341 ft 481 kts 164°
2026-04-22 18:54 51.75278 10.87344 35344 ft 482 kts 165°
2026-04-22 18:54 51.68690 10.89473 35342 ft 480 kts 159°
2026-04-22 18:55 51.62543 10.93413 35343 ft 474 kts 150°
2026-04-22 18:55 51.56616 10.98038 35344 ft 473 kts 149°
2026-04-22 18:56 51.50711 11.02761 35500 ft 477 kts 149°
2026-04-22 18:56 51.47719 11.05141 35681 ft 481 kts 149°
2026-04-22 18:56 51.44715 11.07515 36027 ft 481 kts 150°
2026-04-22 18:57 51.41708 11.09875 36369 ft 481 kts 149°
2026-04-22 18:57 51.38697 11.12230 36752 ft 481 kts 150°
2026-04-22 18:57 51.35683 11.14583 36998 ft 483 kts 150°
2026-04-22 18:57 51.32648 11.16948 37240 ft 485 kts 150°
2026-04-22 18:58 51.29607 11.19315 37519 ft 487 kts 150°
2026-04-22 18:58 51.26553 11.21689 37800 ft 489 kts 150°
2026-04-22 18:58 51.23479 11.24076 37945 ft 493 kts 150°
2026-04-22 18:58 51.20435 11.26436 38176 ft 495 kts 151°
2026-04-22 18:59 51.17336 11.28834 38459 ft 495 kts 151°
2026-04-22 18:59 51.14230 11.31234 38723 ft 496 kts 151°
2026-04-22 18:59 51.11116 11.33636 38971 ft 498 kts 151°
2026-04-22 18:59 51.07990 11.36044 39184 ft 499 kts 151°
2026-04-22 19:00 51.04873 11.38441 39420 ft 498 kts 151°
2026-04-22 19:00 51.01749 11.40841 39683 ft 498 kts 151°
2026-04-22 19:00 50.98628 11.43234 39907 ft 498 kts 151°
2026-04-22 19:00 50.95496 11.45633 40093 ft 499 kts 151°
2026-04-22 19:01 50.92373 11.48022 40309 ft 499 kts 151°
2026-04-22 19:01 50.89245 11.50411 40515 ft 499 kts 152°
2026-04-22 19:01 50.86112 11.52799 40715 ft 499 kts 152°
2026-04-22 19:01 50.82975 11.55187 40909 ft 499 kts 152°
2026-04-22 19:02 50.79845 11.57567 41084 ft 499 kts 152°
2026-04-22 19:02 50.76745 11.59920 41269 ft 500 kts 152°
2026-04-22 19:02 50.70459 11.64682 41339 ft 501 kts 152°
2026-04-22 19:03 50.64151 11.69445 41338 ft 502 kts 152°
2026-04-22 19:03 50.57843 11.74193 41336 ft 502 kts 152°
2026-04-22 19:04 50.51543 11.78922 41332 ft 502 kts 152°
2026-04-22 19:04 50.45241 11.83636 41328 ft 502 kts 152°
2026-04-22 19:05 50.38854 11.88064 41320 ft 503 kts 154°
2026-04-22 19:05 50.32438 11.92299 41321 ft 503 kts 154°
2026-04-22 19:06 50.25994 11.96581 41321 ft 503 kts 154°
2026-04-22 19:07 50.16336 12.03058 41324 ft 503 kts 154°
2026-04-22 19:07 50.09889 12.07378 41009 ft 504 kts 154°
2026-04-22 19:07 50.06672 12.09528 40443 ft 504 kts 154°
2026-04-22 19:08 50.03439 12.11686 39724 ft 505 kts 154°
2026-04-22 19:08 50.00207 12.13840 39000 ft 507 kts 154°
2026-04-22 19:08 49.98056 12.15272 38342 ft 509 kts 154°
2026-04-22 19:08 49.94807 12.17430 37652 ft 506 kts 154°
2026-04-22 19:09 49.91593 12.19558 37363 ft 499 kts 153°
2026-04-22 19:09 49.86129 12.23173 37323 ft 499 kts 153°
2026-04-22 19:10 49.79731 12.27401 37324 ft 499 kts 153°
2026-04-22 19:10 49.73394 12.31783 37321 ft 497 kts 148°
2026-04-22 19:11 49.67740 12.37811 37320 ft 493 kts 139°
2026-04-22 19:11 49.62366 12.44363 37313 ft 492 kts 137°
2026-04-22 19:12 49.57053 12.50943 37314 ft 492 kts 137°
2026-04-22 19:12 49.51702 12.57520 37315 ft 492 kts 138°
2026-04-22 19:13 49.46333 12.64066 37316 ft 494 kts 138°
2026-04-22 19:13 49.40930 12.70623 37307 ft 495 kts 138°
2026-04-22 19:14 49.35696 12.77429 37310 ft 491 kts 131°
2026-04-22 19:14 49.30910 12.84892 37303 ft 490 kts 130°
2026-04-22 19:15 49.26198 12.92444 37306 ft 490 kts 130°
2026-04-22 19:15 49.21488 12.99990 37300 ft 491 kts 130°
2026-04-22 19:16 49.16744 13.07541 37300 ft 493 kts 130°
2026-04-22 19:16 49.14366 13.11311 37056 ft 492 kts 130°
2026-04-22 19:16 49.11988 13.15071 36804 ft 491 kts 130°
2026-04-22 19:16 49.09640 13.18779 36551 ft 491 kts 130°
2026-04-22 19:17 49.07269 13.22516 36297 ft 490 kts 130°
2026-04-22 19:17 49.04894 13.26256 36049 ft 489 kts 130°
2026-04-22 19:17 49.02533 13.29969 35809 ft 488 kts 130°
2026-04-22 19:17 49.00177 13.33668 35577 ft 486 kts 130°
2026-04-22 19:18 48.97824 13.37356 35328 ft 484 kts 130°
2026-04-22 19:18 48.95478 13.41029 35103 ft 484 kts 130°
2026-04-22 19:18 48.93129 13.44705 34857 ft 485 kts 130°
2026-04-22 19:18 48.90779 13.48377 34611 ft 484 kts 130°
2026-04-22 19:19 48.88429 13.52043 34409 ft 484 kts 130°
2026-04-22 19:19 48.86077 13.55706 34143 ft 482 kts 130°
2026-04-22 19:19 48.83752 13.59368 33959 ft 481 kts 128°
2026-04-22 19:20 48.79962 13.67585 33971 ft 471 kts 113°
2026-04-22 19:20 48.77905 13.76876 33638 ft 463 kts 100°
2026-04-22 19:20 48.77205 13.81636 33358 ft 462 kts 99°
2026-04-22 19:21 48.76521 13.86328 33082 ft 461 kts 100°
2026-04-22 19:21 48.75826 13.91063 32822 ft 460 kts 100°
2026-04-22 19:21 48.75129 13.95776 32561 ft 458 kts 100°
2026-04-22 19:21 48.74428 14.00489 32299 ft 456 kts 100°
2026-04-22 19:22 48.73729 14.05165 32023 ft 455 kts 100°
2026-04-22 19:22 48.73028 14.09841 31784 ft 452 kts 100°
2026-04-22 19:22 48.72332 14.14465 31524 ft 448 kts 100°
2026-04-22 19:22 48.71639 14.19056 31272 ft 446 kts 100°
2026-04-22 19:23 48.70948 14.23619 31019 ft 444 kts 101°
2026-04-22 19:23 48.70259 14.28157 30766 ft 442 kts 101°
2026-04-22 19:23 48.69571 14.32677 30523 ft 440 kts 101°
2026-04-22 19:23 48.68890 14.37138 30251 ft 438 kts 101°
2026-04-22 19:24 48.68193 14.41688 29960 ft 437 kts 101°
2026-04-22 19:24 48.67516 14.46094 29675 ft 436 kts 101°
2026-04-22 19:24 48.66826 14.50573 29397 ft 435 kts 101°
2026-04-22 19:24 48.66139 14.55019 29123 ft 433 kts 101°
2026-04-22 19:25 48.65454 14.59442 28841 ft 432 kts 101°
2026-04-22 19:25 48.64767 14.63867 28557 ft 431 kts 101°
2026-04-22 19:25 48.64082 14.68268 28280 ft 430 kts 101°
2026-04-22 19:25 48.63396 14.72661 28011 ft 429 kts 101°
2026-04-22 19:26 48.62710 14.77042 27727 ft 428 kts 101°
2026-04-22 19:26 48.62027 14.81388 27157 ft 421 kts 101°
2026-04-22 19:26 48.61352 14.85672 26514 ft 416 kts 100°
2026-04-22 19:26 48.60684 14.89907 25880 ft 412 kts 100°
2026-04-22 19:27 48.60022 14.94089 25241 ft 408 kts 100°
2026-04-22 19:27 48.59363 14.98242 24569 ft 405 kts 100°
2026-04-22 19:27 48.58709 15.02360 23943 ft 403 kts 100°
2026-04-22 19:27 48.58054 15.06466 23166 ft 401 kts 100°
2026-04-22 19:28 48.57402 15.10551 22411 ft 399 kts 100°
2026-04-22 19:28 48.56754 15.14599 21809 ft 394 kts 100°
2026-04-22 19:28 48.56107 15.18630 21382 ft 400 kts 99°
2026-04-22 19:28 48.55454 15.22707 20920 ft 408 kts 100°
2026-04-22 19:29 48.54780 15.26885 20421 ft 410 kts 100°
2026-04-22 19:29 48.54104 15.31060 19749 ft 408 kts 100°
2026-04-22 19:29 48.53429 15.35210 19038 ft 406 kts 99°
2026-04-22 19:29 48.52758 15.39333 18282 ft 403 kts 99°
2026-04-22 19:30 48.52322 15.42046 17726 ft 400 kts 99°
2026-04-22 19:30 48.51797 15.47539 16731 ft 391 kts 91°
2026-04-22 19:30 48.51570 15.51597 16203 ft 387 kts 91°
2026-04-22 19:30 48.51349 15.55648 15693 ft 387 kts 91°
2026-04-22 19:31 48.51126 15.59676 15176 ft 385 kts 91°
2026-04-22 19:31 48.50901 15.63701 14695 ft 384 kts 91°
2026-04-22 19:31 48.50675 15.67688 14194 ft 382 kts 91°
2026-04-22 19:31 48.50445 15.71686 13669 ft 381 kts 91°
2026-04-22 19:32 48.50212 15.75658 13124 ft 379 kts 91°
2026-04-22 19:32 48.49979 15.79613 12615 ft 378 kts 91°
2026-04-22 19:32 48.49746 15.83549 12089 ft 376 kts 91°
2026-04-22 19:32 48.49513 15.87469 11574 ft 375 kts 92°
2026-04-22 19:33 48.49279 15.91379 11075 ft 373 kts 92°
2026-04-22 19:33 48.49045 15.95277 10567 ft 371 kts 92°
2026-04-22 19:33 48.48811 15.99139 10077 ft 370 kts 92°
2026-04-22 19:33 48.48578 16.02965 9681 ft 360 kts 92°
2026-04-22 19:34 48.48292 16.06626 9420 ft 344 kts 96°
2026-04-22 19:34 48.47679 16.10054 9170 ft 332 kts 107°
2026-04-22 19:34 48.46711 16.13009 8934 ft 307 kts 118°
2026-04-22 19:34 48.45575 16.15597 8701 ft 284 kts 121°
2026-04-22 19:35 48.44486 16.17967 8467 ft 266 kts 121°
2026-04-22 19:35 48.43461 16.20199 8222 ft 256 kts 121°
2026-04-22 19:35 48.42783 16.21683 8058 ft 255 kts 120°
2026-04-22 19:35 48.41454 16.24594 7695 ft 254 kts 120°
2026-04-22 19:36 48.40451 16.26791 7473 ft 255 kts 120°
2026-04-22 19:36 48.39449 16.28980 7213 ft 253 kts 121°
2026-04-22 19:36 48.38454 16.31152 6954 ft 251 kts 121°
2026-04-22 19:36 48.37462 16.33317 6717 ft 250 kts 121°
2026-04-22 19:37 48.36476 16.35464 6459 ft 250 kts 120°
2026-04-22 19:37 48.35485 16.37616 6190 ft 249 kts 121°
2026-04-22 19:37 48.34491 16.39703 6026 ft 249 kts 123°
2026-04-22 19:37 48.33433 16.41780 5991 ft 250 kts 124°
2026-04-22 19:38 48.32364 16.43843 5994 ft 250 kts 124°
2026-04-22 19:38 48.31298 16.45905 5996 ft 250 kts 124°
2026-04-22 19:38 48.30238 16.47966 5995 ft 249 kts 124°
2026-04-22 19:38 48.29176 16.50035 5995 ft 249 kts 124°
2026-04-22 19:39 48.28118 16.52095 6005 ft 249 kts 124°
2026-04-22 19:39 48.27061 16.54156 5997 ft 249 kts 123°
2026-04-22 19:39 48.26008 16.56209 5993 ft 249 kts 123°
2026-04-22 19:39 48.24944 16.58281 5996 ft 249 kts 124°
2026-04-22 19:40 48.23884 16.60346 5860 ft 250 kts 124°
2026-04-22 19:40 48.22821 16.62413 5492 ft 250 kts 123°
2026-04-22 19:40 48.21757 16.64480 5106 ft 251 kts 123°
2026-04-22 19:40 48.20691 16.66552 4710 ft 251 kts 123°
2026-04-22 19:41 48.19620 16.68631 4328 ft 252 kts 123°
2026-04-22 19:41 48.18554 16.70698 3925 ft 248 kts 123°
2026-04-22 19:41 48.17508 16.72720 3554 ft 243 kts 123°
2026-04-22 19:41 48.16477 16.74715 3179 ft 242 kts 123°
2026-04-22 19:42 48.15447 16.76669 3006 ft 243 kts 127°
2026-04-22 19:42 48.14058 16.78146 2991 ft 250 kts 156°
2026-04-22 19:42 48.12396 16.78926 2991 ft 251 kts 164°
2026-04-22 19:42 48.10700 16.79555 2988 ft 249 kts 165°
2026-04-22 19:43 48.07525 16.79968 3018 ft 218 kts 198°
2026-04-22 19:43 48.06108 16.79213 3002 ft 216 kts 204°
2026-04-22 19:43 48.04867 16.78010 2988 ft 211 kts 234°
2026-04-22 19:44 48.04402 16.76076 2992 ft 193 kts 280°
2026-04-22 19:44 48.04931 16.74377 3004 ft 179 kts 317°
2026-04-22 19:44 48.05699 16.72898 2929 ft 182 kts 310°
2026-04-22 19:44 48.06368 16.71309 2679 ft 177 kts 305°
2026-04-22 19:45 48.06926 16.69728 2445 ft 165 kts 303°
2026-04-22 19:45 48.07418 16.68245 2234 ft 154 kts 303°
2026-04-22 19:45 48.07879 16.66823 2025 ft 148 kts 303°
2026-04-22 19:45 48.08305 16.65514 1816 ft 131 kts 303°
2026-04-22 19:46 48.08690 16.64324 1593 ft 125 kts 303°
2026-04-22 19:46 48.09052 16.63189 1380 ft 119 kts 301°
2026-04-22 19:46 48.09428 16.62064 1288 ft 122 kts 302°
2026-04-22 19:46 48.09831 16.60927 1123 ft 121 kts 300°
2026-04-22 19:47 48.10177 16.59799 998 ft 119 kts 298°
2026-04-22 19:47 48.10537 16.58673 800 ft 122 kts 298°
2026-04-22 19:47 48.10781 16.57929 712 ft 114 kts 297°
2026-04-22 19:47 48.11237 16.56551 630 ft 101 kts 296°
2026-04-22 19:48 48.11494 16.55756 623 ft 69 kts 296°
2026-04-22 19:48 48.11659 16.55253 628 ft 38 kts 296°
2026-04-22 19:48 48.11728 16.55039 629 ft 10 kts 296°
2026-04-22 19:48 48.11790 16.54857 629 ft 30 kts 302°
2026-04-22 19:49 48.11940 16.54610 629 ft 32 kts 326°
2026-04-22 19:49 48.11988 16.54565 626 ft 0 kts 330°
2026-04-22 19:49 48.12007 16.54552 626 ft 7 kts 338°
2026-04-22 19:50 48.12066 16.54547 624 ft 10 kts 24°
2026-04-22 19:50 48.12075 16.54629 622 ft 10 kts 111°
2026-04-22 19:50 48.12032 16.54761 629 ft 17 kts 117°
2026-04-22 19:50 48.11973 16.54935 628 ft 20 kts 116°
2026-04-22 19:51 48.11930 16.55066 626 ft 22 kts 116°
2026-04-22 19:51 48.11858 16.55288 627 ft 25 kts 115°
2026-04-22 19:51 48.11778 16.55534 619 ft 28 kts 116°
2026-04-22 19:51 48.11694 16.55789 622 ft 28 kts 116°
2026-04-22 19:52 48.11609 16.56046 626 ft 20 kts 116°
2026-04-22 19:52 48.11633 16.56217 628 ft 19 kts 41°
2026-04-22 19:52 48.11751 16.56313 629 ft 16 kts 37°
2026-04-22 19:52 48.11759 16.56364 626 ft 7 kts 102°
2026-04-22 19:53 48.11724 16.56483 629 ft 15 kts 116°
2026-04-22 19:53 48.11676 16.56624 623 ft 9 kts 109°
2026-04-22 19:53 48.11690 16.56663 629 ft 4 kts 39°
2026-04-22 19:53 48.11724 16.56693 626 ft 7 kts 26°
2026-04-22 19:54 48.11732 16.56699 615 ft 0 kts 27°
2026-04-22 19:54 48.11737 16.56702 615 ft 0 kts 26°
2026-04-22 19:57 48.11737 16.56703 615 ft 0 kts 27°
2026-04-22 19:57 48.11738 16.56703 615 ft 0 kts 28°